Location: *
(58.4167°N, 22.5000°E)
Time: 14:38:45
(UTC+00:00)

CZ-2C R/B - Pass Details

Date: 22 September 2019
Orbit: 704 x 907 km, 98.1° (Epoch: 19 October)

Event Time Altitude Azimuth Distance (km) Brightness Sun altitude
Exits shadow 18:14:50 13° 152° (SSE) 2,225 4.9 -14.1°
Maximum altitude 18:19:42 74° 69° (ENE) 896 3.2 -14.6°
Drops below altitude 10° 18:25:24 10° 346° (NNW) 2,559 6.3 -15.3°
Sets 18:27:52 0° 345° (NNW) 3,521 7.1 -15.6°
